Weather History for KANQ - May, 2014

Change the Weather History Date:

Thursday, May 1, 2014

  Actual Average (KFWA) Record (KFWA)
Temperature  
Mean Temperature 44 °F 56 °F  
Max Temperature 48 °F 67 °F 88 °F (1942)
Min Temperature 39 °F 44 °F 27 °F (1963)
Degree Days  
Heating Degree Days 22 10  
Month to date heating degree days 10  
Since 1 July heating degree days 5892  
Cooling Degree Days 0 0  
Month to date cooling degree days 0  
Year to date cooling degree days 8  
Moisture  
Dew Point 39 °F    
Average Humidity 80    
Maximum Humidity 93    
Minimum Humidity 66    
Precipitation  
Precipitation 0.00 in 0.11 in 1.18 in (1983)
Month to date precipitation 0.11  
Year to date precipitation 10.64  
Snow  
Snow 0.00 in 0.00 in T in (1997)
Month to date snowfall 0.0  
Since 1 July snowfall 33.5  
Snow Depth -    
Sea Level Pressure  
Sea Level Pressure 29.78 in    
Wind  
Wind Speed 11 mph (SW)    
Max Wind Speed 21 mph    
Max Gust Speed 26 mph    
Visibility 9 miles    
Events      
T = Trace of Precipitation, MM = Missing Value Source: NWS Daily Summary

Daily Weather History Graph

Daily Weather History Graph

Search for Another Location

Airport or City:

Trip Planner

Search our weather history database for the weather conditions in past years. The results will help you decide how hot, cold, wet, or windy it might be!

Date:

Astronomy

May. 01, 2014 Rise Set
Actual Time 6:37 AM EDT 8:38 PM EDT
Civil Twilight 6:06 AM EDT 9:08 PM EDT
Nautical Twilight 5:29 AM EDT 9:45 PM EDT
Astronomical Twilight 4:49 AM EDT 10:26 PM EDT
Moon 8:23 AM EDT (5/1) 11:11 PM EDT (5/1)
Length of Visible Light 15h 01m
Length of Day
14h 01m
Waxing Crescent, 6% of the Moon is Illuminated
May 1
Waxing Crescent
May 6
First Quarter
May 14
Full
May 21
Last Quarter
May 28
New

Hourly Weather History & Observations

Time (EDT) Temp. Windchill Dew Point Humidity Pressure Visibility Wind Dir Wind Speed Gust Speed Precip Events Conditions
12:15 AM 46.4 °F 42.9 °F 37.4 °F 71% 29.82 in 10.0 mi West 6.9 mph - N/A   Partly Cloudy
12:35 AM 44.6 °F 38.4 °F 35.6 °F 71% 29.82 in 10.0 mi WSW 12.7 mph - N/A   Clear
12:55 AM 44.6 °F 38.8 °F 35.6 °F 71% 29.82 in 10.0 mi WSW 11.5 mph - N/A   Clear
1:15 AM 44.6 °F 39.2 °F 35.6 °F 71% 29.82 in 10.0 mi WSW 10.4 mph - N/A   Clear
1:35 AM 42.8 °F 38.6 °F 35.6 °F 76% 29.82 in 10.0 mi WSW 6.9 mph - N/A   Clear
1:55 AM 42.8 °F 40.1 °F 35.6 °F 76% 29.82 in 10.0 mi SW 4.6 mph - N/A   Clear
2:15 AM 39.2 °F 35.9 °F 35.6 °F 87% 29.81 in 10.0 mi SW 4.6 mph - N/A   Clear
2:35 AM 39.2 °F 35.0 °F 35.6 °F 87% 29.81 in 10.0 mi SW 5.8 mph - N/A   Clear
2:55 AM 39.2 °F 35.0 °F 35.6 °F 87% 29.80 in 10.0 mi SW 5.8 mph - N/A   Clear
3:15 AM 39.2 °F 35.0 °F 35.6 °F 87% 29.79 in 10.0 mi SW 5.8 mph - N/A   Clear
3:35 AM 39.2 °F 35.0 °F 35.6 °F 87% 29.79 in 10.0 mi SW 5.8 mph - N/A   Clear
3:55 AM 39.2 °F 35.0 °F 35.6 °F 87% 29.78 in 10.0 mi SSW 5.8 mph - N/A   Scattered Clouds
4:15 AM 41.0 °F 37.1 °F 35.6 °F 81% 29.78 in 10.0 mi SSW 5.8 mph - N/A   Mostly Cloudy
4:35 AM 41.0 °F 37.1 °F 35.6 °F 81% 29.78 in 10.0 mi SW 5.8 mph - N/A   Mostly Cloudy
4:55 AM 42.8 °F 38.6 °F 37.4 °F 81% 29.77 in 10.0 mi SSW 6.9 mph - N/A   Mostly Cloudy
5:15 AM 41.0 °F 36.4 °F 35.6 °F 81% 29.78 in 10.0 mi SSW 6.9 mph - N/A   Scattered Clouds
5:35 AM 41.0 °F 35.8 °F 35.6 °F 81% 29.77 in 10.0 mi SSW 8.1 mph - N/A   Clear
5:55 AM 41.0 °F 35.2 °F 35.6 °F 81% 29.77 in 10.0 mi SSW 9.2 mph - N/A   Partly Cloudy
6:15 AM 39.2 °F 33.6 °F 35.6 °F 87% 29.77 in 10.0 mi SSW 8.1 mph - N/A   Partly Cloudy
6:35 AM 39.2 °F 33.6 °F 35.6 °F 87% 29.77 in 10.0 mi SSW 8.1 mph - N/A   Clear
6:55 AM 39.2 °F 34.2 °F 35.6 °F 87% 29.77 in 10.0 mi SSW 6.9 mph - N/A   Mostly Cloudy
7:15 AM 39.2 °F 34.2 °F 37.4 °F 93% 29.77 in 10.0 mi SSW 6.9 mph - N/A   Mostly Cloudy
7:35 AM 41.0 °F 36.4 °F 37.4 °F 87% 29.77 in 10.0 mi SSW 6.9 mph - N/A   Mostly Cloudy
7:55 AM 42.8 °F 38.6 °F 37.4 °F 81% 29.76 in 10.0 mi SSW 6.9 mph - N/A   Partly Cloudy
8:15 AM 42.8 °F 36.6 °F 37.4 °F 81% 29.77 in 10.0 mi SW 11.5 mph - N/A   Clear
8:35 AM 44.6 °F 38.1 °F 39.2 °F 81% 29.77 in 10.0 mi SW 13.8 mph - N/A   Clear
8:55 AM 46.4 °F 40.7 °F 39.2 °F 76% 29.77 in 10.0 mi SW 12.7 mph - N/A   Partly Cloudy
9:15 AM 46.4 °F 40.7 °F 37.4 °F 71% 29.77 in 10.0 mi SW 12.7 mph - N/A   Mostly Cloudy
9:35 AM 46.4 °F 39.2 °F 37.4 °F 71% 29.76 in 10.0 mi WSW 18.4 mph - N/A   Mostly Cloudy
9:55 AM 48.2 °F - 39.2 °F 71% 29.76 in 10.0 mi SW 16.1 mph - N/A   Mostly Cloudy
10:35 AM 46.4 °F 40.4 °F 37.4 °F 71% 29.76 in 10.0 mi SW 13.8 mph - N/A   Overcast
10:55 AM 48.2 °F - 37.4 °F 66% 29.75 in 10.0 mi SSW 16.1 mph - N/A   Mostly Cloudy
11:15 AM 48.2 °F - 39.2 °F 71% 29.75 in 10.0 mi SW 12.7 mph - N/A   Overcast
11:35 AM 48.2 °F - 37.4 °F 66% 29.75 in 10.0 mi SW 16.1 mph - N/A   Overcast
11:55 AM 48.2 °F - 37.4 °F 66% 29.75 in 10.0 mi SW 15.0 mph - N/A   Overcast
12:15 PM 48.2 °F - 37.4 °F 66% 29.76 in 10.0 mi SW 15.0 mph - N/A   Overcast
12:35 PM 48.2 °F - 37.4 °F 66% 29.76 in 10.0 mi SW 20.7 mph - N/A   Overcast
12:55 PM 48.2 °F - 37.4 °F 66% 29.76 in 10.0 mi SW 18.4 mph - N/A   Overcast
1:15 PM 48.2 °F - 37.4 °F 66% 29.76 in 10.0 mi SW 15.0 mph - N/A   Overcast
1:35 PM 48.2 °F - 37.4 °F 66% 29.76 in 10.0 mi SW 17.3 mph - N/A   Overcast
1:55 PM 48.2 °F - 37.4 °F 66% 29.76 in 10.0 mi SW 19.6 mph - N/A   Overcast
2:15 PM 48.2 °F - 37.4 °F 66% 29.76 in 10.0 mi SW 17.3 mph - N/A   Overcast
2:35 PM 48.2 °F - 37.4 °F 66% 29.77 in 10.0 mi SW 17.3 mph - N/A   Overcast
2:55 PM 46.4 °F 39.2 °F 37.4 °F 71% 29.77 in 10.0 mi SW 18.4 mph - N/A   Overcast
3:35 PM 48.2 °F - 37.4 °F 66% 29.77 in 10.0 mi WSW 19.6 mph - N/A   Overcast
3:55 PM 48.2 °F - 37.4 °F 66% 29.77 in 10.0 mi SW 17.3 mph - N/A   Overcast
4:15 PM 48.2 °F - 37.4 °F 66% 29.77 in 10.0 mi WSW 16.1 mph 26.5 mph N/A   Overcast
4:35 PM 46.4 °F 41.5 °F 39.2 °F 76% 29.78 in 10.0 mi SW 10.4 mph - N/A   Overcast
4:55 PM 46.4 °F 40.1 °F 39.2 °F 76% 29.78 in 10.0 mi WSW 15.0 mph - N/A   Overcast
5:15 PM 46.4 °F 40.4 °F 41.0 °F 81% 29.78 in 6.0 mi SW 13.8 mph - N/A   Overcast
5:35 PM 46.4 °F 39.8 °F 42.8 °F 87% 29.78 in 8.0 mi WSW 16.1 mph - N/A   Overcast
5:55 PM 46.4 °F 40.4 °F 42.8 °F 87% 29.79 in 6.0 mi SW 13.8 mph - N/A   Overcast
6:15 PM 44.6 °F 37.4 °F 42.8 °F 93% 29.79 in 9.0 mi SW 16.1 mph - N/A   Overcast
6:35 PM 44.6 °F 38.8 °F 42.8 °F 93% 29.79 in 10.0 mi SW 11.5 mph - N/A   Overcast
6:55 PM 44.6 °F 37.2 °F 42.8 °F 93% 29.79 in 4.0 mi SW 17.3 mph - N/A   Overcast
7:35 PM 44.6 °F 38.1 °F 42.8 °F 93% 29.79 in 4.0 mi WSW 13.8 mph - N/A   Overcast
7:55 PM 44.6 °F 39.2 °F 42.8 °F 93% 29.79 in 4.0 mi SW 10.4 mph - N/A   Overcast
8:15 PM 44.6 °F 38.8 °F 42.8 °F 93% 29.80 in 3.0 mi WSW 11.5 mph - N/A   Overcast
8:35 PM 44.6 °F 38.8 °F 42.8 °F 93% 29.79 in 7.0 mi SW 11.5 mph - N/A   Overcast
8:55 PM 44.6 °F 38.4 °F 42.8 °F 93% 29.80 in 7.0 mi SW 12.7 mph - N/A   Mostly Cloudy
9:15 PM 44.6 °F 38.8 °F 42.8 °F 93% 29.80 in 8.0 mi WSW 11.5 mph - N/A   Overcast
9:35 PM 44.6 °F 38.4 °F 42.8 °F 93% 29.80 in 7.0 mi WSW 12.7 mph - N/A   Overcast
9:55 PM 44.6 °F 38.8 °F 42.8 °F 93% 29.80 in 5.0 mi SW 11.5 mph - N/A   Overcast
10:15 PM 44.6 °F 38.1 °F 42.8 °F 93% 29.80 in 3.0 mi SW 13.8 mph - N/A   Overcast
10:35 PM 44.6 °F 38.4 °F 42.8 °F 93% 29.80 in 8.0 mi SW 12.7 mph - N/A   Overcast
10:55 PM 44.6 °F 38.1 °F 42.8 °F 93% 29.80 in 8.0 mi WSW 13.8 mph - N/A   Overcast
11:15 PM 44.6 °F 38.1 °F 42.8 °F 93% 29.80 in 8.0 mi WSW 13.8 mph - N/A   Overcast
11:35 PM 44.6 °F 38.8 °F 42.8 °F 93% 29.80 in 8.0 mi WSW 11.5 mph - N/A   Overcast
11:55 PM 44.6 °F 38.4 °F 42.8 °F 93% 29.80 in 10.0 mi WSW 12.7 mph - N/A   Overcast